Regional Weather Roundup
Issued by NWS Cleveland, OH

Home | Current Version | Previous Version | Graphics & Text | Print | Product List | Glossary On
Versions: 1 2 3 4 5 6 7 8 9 10 11 12 13 14 15 16 17 18 19 20 21 22 23 24 25 26 27 28 29 30 31 32 33 34 35 36 37 38 39 40 41 42 43 44 45 46 47 48 49 50
000
ASUS41 KCLE 251202
RWRCLE
OHIO REGIONAL WEATHER ROUNDUP
NATIONAL WEATHER SERVICE CLEVELAND, OH
800 AM EDT SAT APR 25 2015

NOTE: "FAIR" INDICATES FEW OR NO CLOUDS BELOW 12,000 FEET WITH NO
SIGNIFICANT WEATHER AND/OR OBSTRUCTIONS TO VISIBILITY.

OHZ001>008-015>018-024>027-034-035-043-044-251300-
   NORTHWEST OHIO

CITY           SKY/WX    TMP DP  RH WIND       PRES   REMARKS
DEFIANCE       CLOUDY    42  38  85 E10       29.90R
FINDLAY        CLOUDY    43  36  76 E16       29.88R
TOLEDO EXPRESS CLOUDY    41  38  89 E8        29.90S
TOLEDO EXEC    CLOUDY    42  37  82 E10       29.92R
LIMA           CLOUDY    43  32  65 E16       29.86R
$$

OHZ009>014-019>023-028>033-038-089-251300-
   NORTHEAST OHIO

CITY           SKY/WX    TMP DP  RH WIND       PRES   REMARKS
CLE-HOPKINS    CLOUDY    40  35  83 E5        29.96F
CLE-LAKEFRONT  CLOUDY    42  34  73 E5        29.94F
CUY CO. ARPT   CLOUDY    41  32  70 E7        29.94F
LORAIN-ELYRIA  CLOUDY    39  39 100 SE10      29.92F
ASHTABULA      CLOUDY    36  28  73 CALM      29.96F
AKRON-CANTON   LGT RAIN  38  34  85 SE6       29.93S
WOOSTER        CLOUDY    37  35  92 E6        29.92F
MANSFIELD      CLOUDY    38  35  89 E10       29.90S
YOUNGSTOWN     CLOUDY    38  27  64 CALM      29.94F
$$

OHZ042-051>053-060>062-070>072-077>081-251300-
  SOUTHWEST OHIO

CITY           SKY/WX    TMP DP  RH WIND       PRES   REMARKS
CINC-COVINGTON LGT RAIN  48  40  73 E9        29.81R
CINC-LUNKEN    CLOUDY    48  45  89 CALM      29.84R
HAMILTON       CLOUDY    51  37  58 VRB3      29.82F
DAYTON         CLOUDY    50  37  61 E13       29.82F
WRIGHT-PAT AFB CLOUDY    49  36  61 E13       29.82F
DAYTON GENERAL CLOUDY    50  31  48 SE12      29.80F
WILMINGTON     CLOUDY    48  32  53 E8        29.82F
$$

OHZ036-037-039>041-045>050-054>059-063>069-073>076-082>088-251300-
  CENTRAL AND SOUTHEAST OHIO

CITY           SKY/WX    TMP DP  RH WIND       PRES   REMARKS
COLUMBUS       CLOUDY    45  26  47 E13G24    29.86F
OSU AIRPORT    CLOUDY    45  25  45 E16       29.86F
BOLTON FIELD   CLOUDY    46  27  46 E10G17    29.87S
RICKENBACK AFB CLOUDY    45  27  49 E13G22    29.87S
NEWARK         CLOUDY    44  24  45 E13       29.89F
MARION         PTSUNNY   42  28  57 E14G23    29.89R
LANCASTER      CLOUDY    45  28  51 E13       29.88F
ZANESVILLE     CLOUDY    43  20  39 E12       29.91F
NEW PHILLY     CLOUDY    41  34  76 E6        29.94F
$$


USA.gov is the U.S. government's official web portal to all federal, state and local government web resources and services.